Weather History for Ankeny, IA

Change the Weather History Date:

Monday, September 23, 2013

  Actual Average (KDSM) Record (KDSM)
Temperature  
Mean Temperature 63 °F 62 °F  
Max Temperature 75 °F 73 °F 92 °F (1892)
Min Temperature 51 °F 52 °F 32 °F (1983)
Degree Days  
Heating Degree Days 2 5  
Month to date heating degree days 52  
Since 1 July heating degree days 58  
Cooling Degree Days 0 2  
Month to date cooling degree days 100  
Year to date cooling degree days 1039  
Growing Degree Days 13 (Base 50)    
Moisture  
Dew Point 50 °F    
Average Humidity 66    
Maximum Humidity 94    
Minimum Humidity 38    
Precipitation  
Precipitation 0.00 in 0.10 in 2.12 in (1935)
Month to date precipitation 2.42  
Year to date precipitation 29.14  
Snow  
Snow 0.00 in 0.00 in - ()
Month to date snowfall 0.0  
Since 1 July snowfall 0.0  
Since 1 September snowfall 0.0  
Snow Depth -    
Sea Level Pressure  
Sea Level Pressure 29.91 in    
Wind  
Wind Speed 9 mph (SE)    
Max Wind Speed 22 mph    
Max Gust Speed 26 mph    
Visibility 10 miles    
Events      
T = Trace of Precipitation, MM = Missing Value Source: NWS Daily Summary

Daily Weather History Graph

Daily Weather History Graph

Search for Another Location

Airport:

Trip Planner

Search our weather history database for the weather conditions in past years. The results will help you decide how hot, cold, wet, or windy it might be!

Date:

Astronomy

Sep. 23, 2013 Rise Set
Actual Time 7:03 AM CDT 7:09 PM CDT
Civil Twilight 6:35 AM CDT 7:36 PM CDT
Nautical Twilight 6:02 AM CDT 8:09 PM CDT
Astronomical Twilight 5:29 AM CDT 8:42 PM CDT
Moon 9:38 PM CDT (9/23) 11:26 AM CDT (9/23)
Length of Visible Light 13h 01m
Length of Day
12h 06m
Waning Gibbous, 81% of the Moon is Illuminated
Sep 23
Waning Gibbous
Sep 26
Last Quarter
Oct 4
New
Oct 11
First Quarter
Oct 18
Full

Hourly Weather History & Observations

Time (CDT) Temp. Dew Point Humidity Pressure Visibility Wind Dir Wind Speed Gust Speed Precip Events Conditions
12:15 AM 59.0 °F 50.0 °F 72% 29.92 in 10.0 mi SE 9.2 mph - N/A   Clear
12:35 AM 59.0 °F 50.0 °F 72% 29.93 in 10.0 mi SE 9.2 mph - N/A   Clear
12:55 AM 59.0 °F 50.0 °F 72% 29.93 in 10.0 mi SE 9.2 mph - N/A   Clear
1:15 AM 57.2 °F 50.0 °F 77% 29.93 in 10.0 mi SE 9.2 mph - N/A   Clear
1:35 AM 57.2 °F 50.0 °F 77% 29.93 in 10.0 mi SE 6.9 mph - N/A   Clear
1:55 AM 55.4 °F 50.0 °F 82% 29.94 in 10.0 mi SSE 5.8 mph - N/A   Clear
2:15 AM 53.6 °F 48.2 °F 82% 29.94 in 10.0 mi SE 4.6 mph - N/A   Clear
2:35 AM 55.4 °F 50.0 °F 82% 29.94 in 10.0 mi SE 6.9 mph - N/A   Clear
2:55 AM 55.4 °F 50.0 °F 82% 29.93 in 10.0 mi SE 5.8 mph - N/A   Clear
3:15 AM 53.6 °F 50.0 °F 88% 29.93 in 10.0 mi SE 5.8 mph - N/A   Clear
3:35 AM 53.6 °F 48.2 °F 82% 29.93 in 10.0 mi SE 4.6 mph - N/A   Clear
3:55 AM 51.8 °F 48.2 °F 88% 29.93 in 10.0 mi SSE 4.6 mph - N/A   Clear
4:15 AM 51.8 °F 48.2 °F 88% 29.93 in 10.0 mi SSE 4.6 mph - N/A   Clear
4:35 AM 51.8 °F 48.2 °F 88% 29.94 in 10.0 mi SE 4.6 mph - N/A   Clear
4:55 AM 51.8 °F 48.2 °F 88% 29.93 in 10.0 mi SE 5.8 mph - N/A   Clear
5:15 AM 51.8 °F 48.2 °F 88% 29.93 in 10.0 mi SE 5.8 mph - N/A   Clear
5:35 AM 51.8 °F 48.2 °F 88% 29.93 in 10.0 mi SE 6.9 mph - N/A   Clear
5:55 AM 51.8 °F 48.2 °F 88% 29.93 in 10.0 mi SE 5.8 mph - N/A   Clear
6:15 AM 51.8 °F 50.0 °F 94% 29.94 in 10.0 mi SE 5.8 mph - N/A   Clear
6:35 AM 53.6 °F 50.0 °F 88% 29.94 in 10.0 mi SE 6.9 mph - N/A   Clear
6:55 AM 51.8 °F 50.0 °F 94% 29.94 in 10.0 mi SE 6.9 mph - N/A   Clear
7:15 AM 53.6 °F 50.0 °F 88% 29.94 in 10.0 mi SE 6.9 mph - N/A   Clear
7:35 AM 53.6 °F 50.0 °F 88% 29.95 in 10.0 mi SE 4.6 mph - N/A   Clear
7:55 AM 53.6 °F 50.0 °F 88% 29.95 in 10.0 mi SSE 5.8 mph - N/A   Clear
8:15 AM 55.4 °F 50.0 °F 82% 29.95 in 10.0 mi SSE 6.9 mph - N/A   Clear
8:35 AM 57.2 °F 50.0 °F 77% 29.95 in 10.0 mi SE 8.1 mph - N/A   Clear
8:55 AM 59.0 °F 51.8 °F 77% 29.96 in 10.0 mi SE 9.2 mph 15.0 mph N/A   Clear
9:15 AM 59.0 °F 51.8 °F 77% 29.96 in 10.0 mi SSE 9.2 mph 16.1 mph N/A   Clear
9:35 AM 62.6 °F 51.8 °F 68% 29.96 in 10.0 mi SSE 12.7 mph - N/A   Clear
9:55 AM 62.6 °F 51.8 °F 68% 29.97 in 10.0 mi SSE 10.4 mph 16.1 mph N/A   Clear
10:15 AM 64.4 °F 51.8 °F 64% 29.97 in 10.0 mi South 11.5 mph 18.4 mph N/A   Clear
10:35 AM 66.2 °F 51.8 °F 60% 29.97 in 10.0 mi SSE 12.7 mph - N/A   Clear
10:55 AM 66.2 °F 53.6 °F 64% 29.97 in 10.0 mi SSE 11.5 mph 17.3 mph N/A   Clear
11:15 AM 68.0 °F 53.6 °F 60% 29.96 in 10.0 mi SSE 11.5 mph - N/A   Clear
11:35 AM 69.8 °F 53.6 °F 56% 29.95 in 10.0 mi SE 13.8 mph 21.9 mph N/A   Clear
11:55 AM 71.6 °F 51.8 °F 50% 29.94 in 10.0 mi South 18.4 mph 24.2 mph N/A   Clear
12:15 PM 71.6 °F 53.6 °F 53% 29.94 in 10.0 mi SSE 13.8 mph 21.9 mph N/A   Clear
12:35 PM 73.4 °F 51.8 °F 47% 29.93 in 10.0 mi SSE 19.6 mph 25.3 mph N/A   Clear
1:15 PM 73.4 °F 50.0 °F 44% 29.92 in 10.0 mi South 18.4 mph - N/A   Clear
1:35 PM 73.4 °F 51.8 °F 47% 29.90 in 10.0 mi SE 16.1 mph - N/A   Clear
1:55 PM 75.2 °F 50.0 °F 41% 29.90 in 10.0 mi South 17.3 mph 25.3 mph N/A   Clear
2:15 PM 75.2 °F 51.8 °F 44% 29.89 in 10.0 mi SSE 21.9 mph - N/A   Clear
2:35 PM 75.2 °F 51.8 °F 44% 29.89 in 10.0 mi SSE 16.1 mph 24.2 mph N/A   Clear
2:55 PM 75.2 °F 51.8 °F 44% 29.88 in 10.0 mi SSE 17.3 mph - N/A   Clear
3:15 PM 75.2 °F 51.8 °F 44% 29.87 in 10.0 mi SE 18.4 mph 26.5 mph N/A   Clear
3:35 PM 75.2 °F 51.8 °F 44% 29.87 in 10.0 mi SSE 17.3 mph 26.5 mph N/A   Clear
3:55 PM 75.2 °F 51.8 °F 44% 29.87 in 10.0 mi SSE 17.3 mph 23.0 mph N/A   Clear
4:15 PM 75.2 °F 50.0 °F 41% 29.87 in 10.0 mi SSE 17.3 mph 24.2 mph N/A   Clear
4:35 PM 75.2 °F 50.0 °F 41% 29.86 in 10.0 mi SSE 15.0 mph 23.0 mph N/A   Clear
4:55 PM 75.2 °F 50.0 °F 41% 29.85 in 10.0 mi SE 16.1 mph 25.3 mph N/A   Clear
5:15 PM 75.2 °F 50.0 °F 41% 29.85 in 10.0 mi SE 15.0 mph 21.9 mph N/A   Clear
5:35 PM 75.2 °F 48.2 °F 38% 29.84 in 10.0 mi SE 18.4 mph 25.3 mph N/A   Clear
5:55 PM 73.4 °F 50.0 °F 44% 29.84 in 10.0 mi SE 19.6 mph 25.3 mph N/A   Clear
6:15 PM 73.4 °F 50.0 °F 44% 29.84 in 10.0 mi SE 13.8 mph 21.9 mph N/A   Clear
6:35 PM 73.4 °F 48.2 °F 41% 29.85 in 10.0 mi SE 12.7 mph 20.7 mph N/A   Clear
6:55 PM 71.6 °F 50.0 °F 46% 29.85 in 10.0 mi SE 11.5 mph - N/A   Clear
7:15 PM 69.8 °F 50.0 °F 49% 29.85 in 10.0 mi SE 6.9 mph - N/A   Clear
7:35 PM 68.0 °F 50.0 °F 52% 29.86 in 10.0 mi SE 8.1 mph - N/A   Clear
7:55 PM 68.0 °F 50.0 °F 52% 29.86 in 10.0 mi SE 9.2 mph 16.1 mph N/A   Clear
8:15 PM 66.2 °F 50.0 °F 56% 29.86 in 10.0 mi SE 9.2 mph 15.0 mph N/A   Clear
8:35 PM 66.2 °F 50.0 °F 56% 29.87 in 10.0 mi ESE 6.9 mph - N/A   Clear
8:55 PM 62.6 °F 50.0 °F 63% 29.87 in 10.0 mi ESE 6.9 mph - N/A   Clear
9:15 PM 64.4 °F 50.0 °F 59% 29.88 in 10.0 mi ESE 9.2 mph - N/A   Clear
9:35 PM 62.6 °F 50.0 °F 63% 29.88 in 10.0 mi ESE 9.2 mph - N/A   Clear
9:55 PM 60.8 °F 50.0 °F 68% 29.88 in 10.0 mi East 5.8 mph - N/A   Clear
10:15 PM 59.0 °F 50.0 °F 72% 29.89 in 10.0 mi East 4.6 mph - N/A   Clear
10:35 PM 57.2 °F 50.0 °F 77% 29.90 in 10.0 mi Calm Calm - N/A   Clear
10:55 PM 57.2 °F 50.0 °F 77% 29.91 in 10.0 mi Calm Calm - N/A   Clear
11:15 PM 53.6 °F 50.0 °F 88% 29.91 in 10.0 mi East 4.6 mph - N/A   Clear
11:35 PM 55.4 °F 50.0 °F 82% 29.90 in 10.0 mi ESE 4.6 mph - N/A   Clear
11:55 PM 57.2 °F 51.8 °F 82% 29.89 in 10.0 mi SE 4.6 mph - N/A   Clear